Location: Ergnies
(50.0854°N, 2.0375°E)
Time: 09:37:53
(UTC+00:00)

Cosmos 2344 - Pass Details

Date: 14 January 2026
Orbit: 1196 x 3047 km, 63.3° (Epoch: 11 February)

Event Time Altitude Azimuth Distance (km) Brightness Sun altitude
Exits shadow 04:10:15 33° 354° (N) 1,919 4.4 -33.8°
Drops below altitude 10° 04:16:41 10° 50° (NE) 3,385 6.4 -32.8°
Sets 04:20:08 0° 60° (ENE) 4,537 7.4 -32.2°
